FW6490 Weather Reports


Display with metric or nautical units.
time (UTC)temp
F
wind
direction
speed
MPH
gust
MPH
rain 1hr
in
rain 24hr
in
rain mn
in
humidity
%
barometer
mb
20260510015028 61 322 4.0 9.0 0.00 0.00 0.00 77 1007.4
20260510014021 61 313 4.0 11.0 0.00 0.00 0.00 77 1007.4
20260510013521 61 304 4.0 11.0 0.00 0.00 0.00 76 1007.4
20260510013017 61 342 4.0 11.0 0.00 0.00 0.00 76 1007.4
20260510012515 61 301 5.0 11.0 0.00 0.00 0.00 76 1007.4
20260510011513 61 314 5.0 9.0 0.00 0.00 0.00 75 1007.4
20260510011007 61 316 5.0 12.0 0.00 0.00 0.00 75 1007.4
20260510010510 62 318 5.0 12.0 0.00 0.00 0.00 74 1007.4
20260510010004 62 319 5.0 11.0 0.00 0.00 0.00 74 1007.4
20260510005500 62 288 6.0 10.0 0.00 0.00 0.00 73 1007.4
20260510003455 65 302 5.0 10.0 0.00 0.00 0.00 70 1007.4
20260510002954 65 324 4.0 10.0 0.00 0.00 0.00 68 1007.4
20260510002453 65 315 5.0 9.0 0.00 0.00 0.00 69 1007.3
20260510001454 65 318 6.0 15.0 0.00 0.00 0.00 68 1007.3
20260510000951 65 301 5.0 12.0 0.00 0.00 0.00 69 1007.3
20260510000448 66 342 5.0 12.0 0.00 0.00 0.00 68 1007.3
20260509235948 66 338 6.0 13.0 0.00 0.00 0.00 68 1007.3
20260509235445 66 314 6.0 13.0 0.00 0.00 0.00 66 1007.3
20260509234944 67 319 5.0 12.0 0.00 0.00 0.00 66 1007.3
20260509234442 67 43 6.0 11.0 0.00 0.00 0.00 67 1007.3
20260509233443 67 326 6.0 12.0 0.00 0.00 0.00 67 1007.1
20260509232938 67 316 7.0 13.0 0.00 0.00 0.00 67 1007.1
20260509232435 67 337 7.0 13.0 0.00 0.00 0.00 66 1007.0
20260509231933 67 44 7.0 13.0 0.00 0.00 0.00 67 1007.0
20260509231429 67 309 6.0 13.0 0.00 0.00 0.00 65 1007.0
20260509230929 68 302 6.0 13.0 0.00 0.00 0.00 66 1007.0
20260509230432 67 330 6.0 14.0 0.00 0.00 0.00 66 1007.0
20260509225931 68 292 6.0 14.0 0.00 0.00 0.00 65 1007.0
20260509225426 67 308 6.0 13.0 0.00 0.00 0.00 66 1007.1
20260509224924 67 334 7.0 13.0 0.00 0.00 0.00 67 1007.1
20260509223922 67 306 7.0 15.0 0.00 0.00 0.00 66 1007.4
20260509223421 68 323 7.0 15.0 0.00 0.00 0.00 66 1007.4
20260509222918 67 297 7.0 13.0 0.00 0.00 0.00 66 1007.4
20260509222418 68 315 6.0 14.0 0.00 0.00 0.00 65 1007.5
20260509221915 67 322 7.0 16.0 0.00 0.00 0.00 66 1007.5
20260509220414 69 316 7.0 13.0 0.00 0.00 0.00 65 1007.5
20260509215913 69 340 7.0 14.0 0.00 0.00 0.00 64 1007.6
20260509214909 70 321 6.0 13.0 0.00 0.00 0.00 64 1007.6
20260509214406 69 324 7.0 13.0 0.00 0.00 0.00 65 1007.8
20260509213901 69 328 7.0 14.0 0.00 0.00 0.00 65 1007.8
20260509212858 69 322 6.0 14.0 0.00 0.00 0.00 63 1007.7
20260509211858 70 318 6.0 12.0 0.00 0.00 0.00 63 1007.7
20260509211358 70 281 6.0 12.0 0.00 0.00 0.00 63 1007.9
20260509210357 71 310 6.0 13.0 0.00 0.00 0.00 62 1007.9
20260509205852 71 321 6.0 13.0 0.00 0.00 0.00 62 1008.0
20260509205353 70 286 6.0 12.0 0.00 0.00 0.00 63 1008.0
20260509204851 70 323 6.0 12.0 0.00 0.00 0.00 63 1008.0
20260509204347 70 0 6.0 12.0 0.00 0.00 0.00 62 1008.0
20260509203344 71 0 5.0 10.0 0.00 0.00 0.00 62 1008.0
20260509202846 71 29 4.0 10.0 0.00 0.00 0.00 62 1008.1
20260509202344 71 326 4.0 10.0 0.00 0.00 0.00 63 1008.1
20260509201342 71 321 4.0 10.0 0.00 0.00 0.00 63 1008.3
20260509200840 71 311 4.0 10.0 0.00 0.00 0.00 63 1008.3
20260509200340 70 322 5.0 10.0 0.00 0.00 0.00 65 1008.3
20260509195837 71 327 4.0 10.0 0.00 0.00 0.00 63 1008.4
20260509195337 70 346 4.0 11.0 0.00 0.00 0.00 64 1008.4
20260509194835 69 329 5.0 11.0 0.00 0.00 0.00 66 1008.4
20260509193828 68 342 5.0 11.0 0.00 0.00 0.00 67 1008.6
20260509193327 68 327 4.0 10.0 0.00 0.00 0.00 68 1008.6
20260509192320 67 327 5.0 12.0 0.00 0.00 0.00 70 1008.6
20260509191820 67 311 6.0 12.0 0.00 0.00 0.00 69 1008.6
20260509191320 67 340 7.0 12.0 0.00 0.00 0.00 69 1008.7
20260509190318 68 345 6.0 10.0 0.00 0.00 0.00 67 1008.7
20260509185812 67 348 6.0 11.0 0.00 0.00 0.00 67 1008.6
20260509185313 68 319 6.0 13.0 0.00 0.00 0.00 66 1008.6
20260509184814 68 319 5.0 13.0 0.00 0.00 0.00 67 1008.6
20260509184314 69 303 5.0 10.0 0.00 0.00 0.00 67 1008.6
20260509183809 70 313 5.0 9.0 0.00 0.00 0.00 65 1008.6
20260509183307 70 307 4.0 7.0 0.00 0.00 0.00 65 1008.6
20260509181757 72 317 3.0 8.0 0.00 0.00 0.00 63 1008.7
20260509181254 72 294 3.0 8.0 0.00 0.00 0.00 64 1009.0
20260509180249 73 323 2.0 7.0 0.00 0.00 0.00 62 1009.0
20260509175248 72 336 0.0 5.0 0.00 0.00 0.00 64 1009.0
20260509174751 72 9 0.0 5.0 0.00 0.00 0.00 64 1009.0
20260509174244 71 5 0.0 5.0 0.00 0.00 0.00 66 1009.0
20260509173741 70 5 0.0 4.0 0.00 0.00 0.00 67 1009.0
20260509173240 70 355 0.0 4.0 0.00 0.00 0.00 69 1009.0
20260509172740 69 5 0.0 3.0 0.00 0.00 0.00 71 1009.0
20260509172240 67 5 0.0 1.0 0.00 0.00 0.00 74 1009.0
20260509171742 66 59 0.0 1.0 0.00 0.00 0.00 76 1009.0
20260509171241 65 65 0.0 1.0 0.00 0.00 0.00 76 1009.1
20260509170739 65 65 0.0 0.0 0.00 0.00 0.00 77 1009.1
20260509170235 64 65 0.0 0.0 0.00 0.00 0.00 77 1009.1
20260509165738 63 65 0.0 0.0 0.00 0.00 0.00 79 1009.1
20260509165237 62 59 0.0 0.0 0.00 0.00 0.00 83 1009.1
20260509164732 61 58 0.0 0.0 0.00 0.00 0.00 85 1009.1
20260509164228 60 58 0.0 0.0 0.00 0.00 0.00 87 1009.2
20260509163225 58 57 0.0 0.0 0.00 0.00 0.00 92 1009.2
20260509162723 57 0 0.0 0.0 0.00 0.00 0.00 94 1009.4
20260509162219 56 0 0.0 0.0 0.00 0.00 0.00 95 1009.4
20260509161213 55 355 0.0 0.0 0.00 0.00 0.00 96 1009.3
20260509160712 54 355 0.0 0.0 0.00 0.00 0.00 96 1009.3
20260509160206 54 346 0.0 0.0 0.00 0.00 0.00 97 1009.3
20260509155704 53 329 0.0 0.0 0.00 0.00 0.00 96 1009.3
20260509155204 53 329 0.0 0.0 0.00 0.00 0.00 96 1009.3
20260509154209 52 329 0.0 0.0 0.00 0.00 0.00 97 1009.5
20260509153704 52 329 0.0 0.0 0.00 0.00 0.00 96 1009.5
20260509152701 52 329 0.0 0.0 0.00 0.00 0.00 96 1009.4
20260509152201 51 329 0.0 2.0 0.00 0.00 0.00 96 1009.4
20260509151159 51 329 0.0 2.0 0.00 0.00 0.00 96 1009.3
20260509150658 51 329 0.0 2.0 0.00 0.00 0.00 96 1009.3
20260509145655 51 329 1.0 2.0 0.00 0.00 0.00 96 1009.4
20260509145149 51 329 1.0 3.0 0.00 0.00 0.00 96 1009.4
20260509143643 50 329 1.0 3.0 0.00 0.00 0.00 96 1009.4
20260509143140 50 329 1.0 3.0 0.00 0.00 0.00 96 1009.4
20260509142640 50 329 1.0 3.0 0.00 0.00 0.00 96 1009.5
20260509142142 50 329 1.0 3.0 0.00 0.00 0.00 96 1009.5
20260509141636 50 329 0.0 2.0 0.00 0.00 0.00 96 1009.5
20260509140635 50 330 0.0 0.0 0.00 0.00 0.00 96 1009.5
20260509140131 50 331 0.0 2.0 0.00 0.00 0.00 96 1009.5
20260509135632 49 330 1.0 3.0 0.00 0.00 0.00 96 1009.5
20260509135125 49 331 1.0 3.0 0.00 0.00 0.00 96 1009.5
20260509134625 49 330 1.0 3.0 0.00 0.00 0.00 95 1009.5
20260509134124 50 330 0.0 2.0 0.00 0.00 0.00 95 1009.2
20260509133623 50 330 0.0 1.0 0.00 0.00 0.00 95 1009.2
20260509133117 50 330 0.0 1.0 0.00 0.00 0.00 95 1009.2
20260509132615 50 330 0.0 1.0 0.00 0.00 0.00 96 1009.0
20260509132116 50 329 0.0 0.0 0.00 0.00 0.00 96 1009.0
20260509131110 50 329 0.0 0.0 0.00 0.00 0.00 95 1008.9
20260509130609 50 329 0.0 0.0 0.00 0.00 0.00 95 1008.9
20260509125604 50 329 0.0 0.0 0.00 0.00 0.00 95 1008.5
20260509125105 50 329 0.0 0.0 0.00 0.00 0.00 95 1008.5
20260509124600 50 329 0.0 0.0 0.00 0.00 0.00 95 1008.5
20260509123558 50 329 0.0 0.0 0.00 0.00 0.00 95 1008.6
20260509123056 50 329 0.0 0.0 0.00 0.00 0.00 95 1008.6
20260509122549 50 329 0.0 0.0 0.00 0.00 0.00 95 1008.6
20260509122046 50 329 0.0 3.0 0.00 0.00 0.00 95 1008.6
20260509121050 50 329 0.0 1.0 0.00 0.00 0.00 95 1008.9
20260509120541 51 329 0.0 3.0 0.00 0.00 0.00 95 1008.9
20260509120041 51 329 1.0 3.0 0.00 0.00 0.00 95 1008.9
20260509115538 51 329 0.0 2.0 0.00 0.00 0.00 95 1008.9
20260509115034 51 329 0.0 1.0 0.00 0.00 0.00 95 1008.9
20260509114032 51 329 1.0 2.0 0.00 0.00 0.00 94 1008.9
20260509113528 51 329 0.0 2.0 0.00 0.00 0.00 95 1008.9
20260509113030 51 329 0.0 2.0 0.00 0.00 0.00 95 1008.9
20260509110520 50 329 0.0 3.0 0.00 0.00 0.00 94 1009.1
20260509105515 50 329 0.0 3.0 0.00 0.00 0.00 94 1009.1
20260509105007 50 329 1.0 3.0 0.00 0.00 0.00 94 1009.1
20260509104507 51 329 1.0 3.0 0.00 0.00 0.00 94 1009.1
20260509104011 51 329 1.0 3.0 0.00 0.00 0.00 94 1009.3
20260509103511 51 329 0.0 0.0 0.00 0.00 0.00 94 1009.3
20260509103001 51 329 0.0 0.0 0.00 0.00 0.00 94 1009.3
20260509102459 51 329 0.0 0.0 0.00 0.00 0.00 94 1009.2
20260509101959 51 329 0.0 0.0 0.00 0.00 0.00 94 1009.2
20260509101457 51 329 0.0 0.0 0.00 0.00 0.00 94 1009.2
20260509100952 51 329 0.0 0.0 0.00 0.00 0.00 93 1009.4
20260509095954 52 329 0.0 0.0 0.00 0.00 0.00 93 1009.4
20260509095448 52 329 0.0 0.0 0.00 0.00 0.00 94 1009.4
20260509094947 52 329 0.0 0.0 0.00 0.00 0.00 94 1009.4
20260509094441 51 329 0.0 0.0 0.00 0.00 0.00 94 1009.4
20260509093934 51 329 0.0 0.0 0.00 0.00 0.00 93 1009.5
20260509093431 51 329 0.0 0.0 0.00 0.00 0.00 93 1009.5
20260509092928 51 329 0.0 2.0 0.00 0.00 0.00 93 1009.5
20260509092424 52 329 0.0 2.0 0.00 0.00 0.00 93 1009.4
20260509091923 52 329 0.0 2.0 0.00 0.00 0.00 93 1009.4
20260509091419 52 329 0.0 2.0 0.00 0.00 0.00 93 1009.4
20260509090923 52 329 0.0 1.0 0.00 0.00 0.00 93 1009.5
20260509090423 52 329 0.0 1.0 0.00 0.00 0.00 93 1009.5
20260509085913 52 329 0.0 2.0 0.00 0.00 0.00 93 1009.5
20260509085413 52 329 0.0 2.0 0.00 0.00 0.00 93 1009.5
20260509084908 51 329 0.0 2.0 0.00 0.00 0.00 93 1009.5
20260509083905 51 329 0.0 0.0 0.00 0.00 0.00 93 1009.7
20260509083405 51 329 0.0 0.0 0.00 0.00 0.00 93 1009.7
20260509082405 51 329 0.0 2.0 0.00 0.00 0.00 92 1009.8
20260509081401 51 329 0.0 2.0 0.00 0.00 0.00 93 1009.8
20260509080353 52 329 1.0 3.0 0.00 0.00 0.00 92 1009.8
20260509075853 52 329 1.0 3.0 0.00 0.00 0.00 92 1009.9
20260509075352 52 329 1.0 3.0 0.00 0.00 0.00 92 1009.9
20260509074849 52 329 1.0 4.0 0.00 0.00 0.00 92 1009.9
20260509074346 52 329 0.0 4.0 0.00 0.00 0.00 92 1009.9
20260509073842 52 329 1.0 4.0 0.00 0.00 0.00 92 1009.9
20260509073347 52 329 1.0 4.0 0.00 0.00 0.00 91 1009.9
20260509072842 52 329 1.0 3.0 0.00 0.00 0.00 91 1010.0
20260509072340 53 329 1.0 3.0 0.00 0.00 0.00 91 1010.0
20260509071840 53 329 1.0 3.0 0.00 0.00 0.00 91 1010.0
20260509071339 53 329 1.0 3.0 0.00 0.00 0.00 91 1010.0
20260509070840 53 329 1.0 3.0 0.00 0.00 0.00 91 1010.0
20260509070339 53 329 0.0 2.0 0.00 0.00 0.00 91 1010.0
20260509065843 53 329 0.0 2.0 0.00 0.00 0.00 91 1010.1
20260509064840 53 329 1.0 3.0 0.00 0.00 0.00 91 1010.1
20260509064334 53 329 1.0 3.0 0.00 0.00 0.00 91 1010.2
20260509063836 53 329 0.0 3.0 0.00 0.00 0.00 91 1010.2
20260509062830 54 329 0.0 2.0 0.00 0.00 0.00 91 1010.5
20260509062327 54 329 0.0 2.0 0.00 0.00 0.00 91 1010.5
20260509061327 54 329 0.0 2.0 0.00 0.00 0.00 91 1010.5
20260509060824 53 329 1.0 3.0 0.00 0.00 0.00 91 1010.5
20260509060324 53 329 1.0 3.0 0.00 0.00 0.00 91 1010.5
20260509055822 53 329 1.0 3.0 0.00 0.00 0.00 91 1010.5
20260509055324 53 329 1.0 3.0 0.00 0.00 0.00 91 1010.5
20260509054820 53 329 2.0 5.0 0.00 0.00 0.00 91 1010.5
20260509054326 53 329 2.0 5.0 0.00 0.00 0.00 91 1010.5
20260509053820 53 329 2.0 4.0 0.00 0.00 0.00 91 1010.5
20260509052817 53 329 0.0 2.0 0.00 0.00 0.00 91 1010.5
20260509052316 53 329 0.0 2.0 0.00 0.00 0.00 91 1010.5
20260509051814 53 329 1.0 4.0 0.00 0.00 0.00 91 1010.5
20260509051306 53 329 1.0 4.0 0.00 0.00 0.00 91 1010.4
20260509050808 53 329 1.0 4.0 0.00 0.00 0.00 90 1010.4
20260509050305 53 329 1.0 3.0 0.00 0.00 0.00 90 1010.4
20260509045806 53 329 0.0 2.0 0.00 0.00 0.00 90 1010.2
20260509045306 54 329 0.0 2.0 0.00 0.00 0.00 90 1010.2
20260509044800 54 329 1.0 4.0 0.00 0.00 0.00 90 1010.2
20260509044300 54 329 1.0 4.0 0.00 0.00 0.00 90 1010.1
20260509043758 54 329 1.0 3.0 0.00 0.00 0.00 90 1010.1
20260509043258 54 329 1.0 3.0 0.00 0.00 0.00 90 1010.1
20260509042254 54 329 1.0 3.0 0.00 0.00 0.00 89 1010.0
20260509041757 54 329 0.0 2.0 0.00 0.00 0.00 89 1010.0
20260509041252 54 329 1.0 4.0 0.00 0.00 0.00 89 1009.9
20260509040750 54 329 1.0 4.0 0.00 0.00 0.00 89 1009.9
20260509040249 54 329 1.0 4.0 0.00 0.00 0.00 89 1009.9
20260509035748 54 329 1.0 4.0 0.00 0.00 0.00 88 1009.9
20260509035246 54 329 1.0 4.0 0.00 0.00 0.00 88 1009.9
20260509034741 55 329 1.0 5.0 0.00 0.00 0.00 87 1009.9
20260509034241 55 329 0.0 5.0 0.00 0.00 0.00 87 1009.8
20260509033738 55 329 0.0 2.0 0.00 0.00 0.00 86 1009.8
20260509033240 55 329 1.0 4.0 0.00 0.00 0.00 86 1009.8
20260509032732 55 329 1.0 4.0 0.00 0.00 0.00 86 1009.5
20260509032232 56 329 1.0 4.0 0.00 0.00 0.00 85 1009.5
20260509031730 56 329 2.0 4.0 0.00 0.00 0.00 85 1009.6
20260509031227 56 329 1.0 4.0 0.00 0.00 0.00 84 1009.5
20260509030726 56 329 1.0 4.0 0.00 0.00 0.00 84 1009.5
20260509030224 57 329 1.0 4.0 0.00 0.00 0.00 84 1009.5
20260509025719 57 329 1.0 3.0 0.00 0.00 0.00 83 1009.4
20260509025224 57 329 1.0 5.0 0.00 0.00 0.00 83 1009.4
20260509024722 57 329 2.0 5.0 0.00 0.00 0.00 83 1009.4
20260509023717 58 329 3.0 6.0 0.00 0.00 0.00 82 1009.1
20260509023216 58 329 3.0 6.0 0.00 0.00 0.00 81 1009.1
20260509022712 58 331 2.0 5.0 0.00 0.00 0.00 81 1009.0
20260509021713 59 327 4.0 6.0 0.00 0.00 0.00 80 1009.0
20260509021212 59 324 4.0 8.0 0.00 0.00 0.00 79 1009.0
20260509020713 59 327 4.0 10.0 0.00 0.00 0.00 78 1009.0
20260509020212 60 314 4.0 10.0 0.00 0.00 0.00 77 1009.0
20260509015708 61 335 3.0 6.0 0.00 0.00 0.00 77 1009.0